Terminal Aerodrome Forecast
Issued by NWS

Home | Current Version | Previous Version | Text Only | Print | Product List | Glossary On
Versions: 1 2 3 4 5 6 7 8 9 10 11 12 13 14 15 16 17 18 19 20 21 22
000
FTUS46 KMFR 230530
TAFRBG
TAF
KRBG 230530Z 2306/2406 VRB03KT 5SM -SN BR SCT005 BKN025 OVC040
      TEMPO 2306/2308 2SM -SN BR BKN005
     FM230800 VRB03KT P6SM SCT005 OVC015
     FM231100 00000KT 1/2SM FG OVC002
     FM231800 VRB03KT P6SM SCT005 SCT040 SCT100
     FM232000 VRB03KT P6SM SCT040 OVC100
     FM240200 VRB03KT P6SM OVC040=

USA.gov is the U.S. government's official web portal to all federal, state and local government web resources and services.